Hourly Data Report for October 09, 2019

All times are specified in Local Standard Time (LST). Add 1 hour to adjust for Daylight Saving Time where and when it is observed.

ABBOTSFORD A
BRITISH COLUMBIA
Current Station Operator: NAVCAN

49°01'31.000" N
122°21'36.000" W
59.10 m
1100031
71108
YXX

Download Data

Hourly Data (October 2019)
Hourly Data Report for October 9, 2019
TIME Temp Definition
°C
Dew Point Definition
°C
Rel Hum Definition
%
Wind Dir Definition
10's deg

Wind Spd Definition
km/h
Visibility Definition
km
Stn Press Definition
kPa
Hmdx Definition


Wind Chill Definition


Weather Definition


00:00 5.0 -5.4 47 4 17 24.1 101.68     LegendNANA
01:00 4.9 -6.2 44 4 22 24.1 101.74     Clear
02:00 4.9 -6.8 42 3 26 24.1 101.82     LegendNANA
03:00 4.7 -7.1 42 3 21 24.1 101.89     LegendNANA
04:00 3.0 -6.1 51 36 16 24.1 101.97     Clear
05:00 4.3 -7.6 42 3 24 24.1 102.04     LegendNANA
06:00 3.1 -7.4 46 5 13 48.3 102.13     LegendNANA
07:00 4.3 -7.6 42 4 17 48.3 102.21     Clear
08:00 5.4 -7.8 38 4 21 48.3 102.29     LegendNANA
09:00 6.8 -7.4 36 4 18 48.3 102.32     LegendNANA
10:00 7.6 -8.6 31 4 31 48.3 102.33     Clear
11:00 8.2 -9.9 27 4 35 48.3 102.32     LegendNANA
12:00 9.1 -8.6 28 4 30 48.3 102.33     LegendNANA
13:00 9.9 -7.7 28 5 18 48.3 102.30     Clear
14:00 10.4 -7.5 28 7 18 48.3 102.28     LegendNANA
15:00 10.2 -6.2 31 9 22 48.3 102.28     LegendNANA
16:00 10.2 -5.1 34 8 12 48.3 102.29     Clear
17:00 9.0 -5.2 36 7 11 48.3 102.32     LegendNANA
18:00 6.5 -2.7 52 31 5 48.3 102.36     LegendNANA
19:00 4.9 -2.8 58 33 6 24.1 102.38     Clear
20:00 4.8 -2.8 58 4 10 24.1 102.42     LegendNANA
21:00 3.1 -2.5 67 2 7 24.1 102.47     LegendNANA
22:00 2.6 -2.3 70 36 5 24.1 102.51     Clear
23:00 2.2 -2.2 73 8 3 24.1 102.52     LegendNANA

Notes on Data Quality.

Legend

  • E = Estimated
  • M = Missing
  • NA = Not Available
Date modified: